Showing default

PISAT, 41784

Orbit data source: Space-Track

PISAT, 41784 is a payload satellite owned by PES Univ. (IN) in SSO that was launched on Mon, 26 Sep 2016 UTC via a PSLV launch vehicle from the Sirharikota (SRI). Payload-class satellites include a variety of spacecraft equipped with specific instruments for various scientific and technological missions. These include communications satellites like Starlink; space stations such as the ISS; scientific satellites like the Hubble; Earth observation satellites from companies like Planet Labs, Umbra, and HawkEye 360; GPS; miniature CubeSats for education and research; and military/defense satellites.

Loading next visibility...
Identifier
41784, 2016-059B
Orbit
SSO
Last TLE update
16 hours ago
Origin
Manufacturer
PES Univ.
Mission
Operational Amateur Imaging
Bus & Motor
PISAT, Unknown motor
Mass
5.25 kg wet, 5.25 kg dry
Launch date (UTC)
2016-09-26 (9 years ago)
Launch vehicle
PSLV
Launch site
Sirharikota (SRI)
Object type
Payload
Rocket body
Debris
Shape & HBR
Box, 0.256 m
Radar Cross Section
0.079 m², Medium (>0.1 m² and < 1m²)

Expand to show TLE details & history

TLE from 16 hours ago
0 PISAT
1 41784U 16059B   25128.58953593  .00001574  00000-0  28176-3 0  9994
2 41784  97.8173 141.8706 0030966  59.1766 301.2481 14.67862369460366
Epoch: 2025-05-08T14:08Z
Definitive object data (Epoch: 2025-05-08T14:08:55.904Z)
Latitude
0.00004°
Longitude
62.9798°
Altitude
659.637 km
Speed
7.534 km/s
True Right ascension
09h 27m 28s
True Declination
0° 00' 00"
Sunlit
Object was in daylight at TLE epoch
Visualization TLE readout
Latitude
-10.87488°
Longitude
65.13198°
Altitude
664.647 km
Speed
7.529 km/s
Apparent Right ascension
06h 56m 22s
Apparent Declination
-36° 10' 07"
Sunlit
Object is in daylight
Visualization observer readout
Local Sidereal Time
14:36:24
Azimuth
252.287° W
Elevation
-39.824°
Doppler factor
1
Orbital elements
Apogee altitude
686.764 km
Perigee altitude
643.144 km
Semi-major axis
7,043.091 km
Eccentricity
0.0030966
Inclination
97.8173°
RAAN
141.8706°
Arg. of periapsis
59.1766°
True anomaly
300.94412°
Mean anomaly
301.2481°
Eccentric anomaly
301.09617°
Mean motion
3.67196 °/min
BSTAR
0.00028176
Orbital period
98.04 mins
Loading maneuver chart data...
Loading SW <> Apogee altitude chart data...
Loading historical data...
Loading historical data...
Loading historical data...
Loading historical data...
Loading historical data...
Loading historical data...
Loading historical data...

PISAT Visibility forecast

Observer location: undefined°, undefined°

Span
Click to sort rows by Start time (UTC) header in descending order
Start Az.
Max El. time (UTC)
Max El. Az.
Max El.
End time (UTC)
End Az.
8 mins2025-05-09 13:37:34.371Z16.665° NNE2025-05-09 13:41:34.371Z156.333° SSE43.033°2025-05-09 13:45:34.371Z188.659° SSW
8 mins2025-05-10 00:37:34.371Z154.358° SSE2025-05-10 00:41:34.371Z60.212° ENE41.809°2025-05-10 00:45:34.371Z354.475° N
|